Date String (YYYY-MM-DD hh:mm:ss) UTC,Instrument flags,Ambient pressure (hPa),Sample flow (lpm),Bypass flow (lpm),Sample temperature (°C),Ambient temperature (°C),ASC tube jacket temperature (°C),LED temperature (°C),Box temperature (°C),Sample RH (%),Span deviation,Mass concentration (μg/m³),Mass concentration (μg/m³),Mass concentration (μg/m³)
DateTimeUTC,F1_M11,P_M11,Q1_M11,Q2_M11,T1_M11,T2_M11,T3_M11,T4_M11,T5_M11,U1_M11,ZSPAN_M11,X0_M11,X2_M11,X1_M11
2022-03-27 06:00:00,,0823.7,5.02,0.00,29.6,28.6,00.0,38.7,31.4,13.8,0002.3,0022.20,0007.47,0005.10
2022-03-27 06:01:00,,0823.7,4.99,0.00,29.6,28.6,00.0,38.7,31.3,13.8,0000.5,0022.65,0007.50,0005.13
2022-03-27 06:02:00,,0823.7,4.98,0.00,29.6,28.6,00.0,38.7,31.3,13.9,0000.0,0022.25,0007.43,0005.15
2022-03-27 06:03:00,,0823.7,5.01,0.00,29.6,28.6,00.0,38.6,31.3,14.0,0000.4,0022.17,0007.49,0005.18
2022-03-27 06:04:00,,0823.7,5.00,0.00,29.6,28.6,00.0,38.6,31.3,14.0,0000.8,0023.00,0007.53,0005.19
2022-03-27 06:05:00,,0823.6,4.98,0.00,29.6,28.5,00.0,38.6,31.3,14.1,0002.7,0023.53,0007.66,0005.23
2022-03-27 06:06:00,,0823.7,5.01,0.00,29.5,28.5,00.0,38.6,31.3,14.2,0002.9,0024.01,0007.66,0005.24
2022-03-27 06:07:00,,0823.7,5.00,0.00,29.5,28.5,00.0,38.6,31.2,14.3,0002.4,0024.44,0007.60,0005.25
2022-03-27 06:08:00,,0823.7,5.00,0.00,29.5,28.5,00.0,38.6,31.2,14.3,0002.2,0023.48,0007.60,0005.26
2022-03-27 06:09:00,,0823.7,5.01,0.00,29.5,28.5,00.0,38.6,31.2,14.3,0002.4,0022.23,0007.50,0005.27
2022-03-27 06:10:00,,0823.6,4.99,0.00,29.5,28.5,00.0,38.6,31.2,14.3,0002.0,0021.74,0007.48,0005.29
2022-03-27 06:11:00,,0823.6,4.99,0.00,29.5,28.5,00.0,38.6,31.2,14.4,0001.4,0021.81,0007.49,0005.32
2022-03-27 06:12:00,,0823.6,5.00,0.00,29.5,28.5,00.0,38.6,31.2,14.4,0001.7,0021.04,0007.54,0005.36
2022-03-27 06:13:00,,0823.6,5.02,0.00,29.5,28.5,00.0,38.5,31.2,14.4,0000.7,0020.06,0007.51,0005.37
2022-03-27 06:14:00,,0823.7,4.99,0.00,29.5,28.4,00.0,38.5,31.2,14.4,0001.2,0019.45,0007.47,0005.37
2022-03-27 06:15:00,,0823.7,4.98,0.00,29.4,28.4,00.0,38.5,31.2,14.4,0002.0,0018.66,0007.44,0005.38
2022-03-27 06:16:00,,0823.7,5.00,0.00,29.4,28.4,00.0,38.5,31.1,14.4,0002.0,0018.30,0007.37,0005.38
2022-03-27 06:17:00,,0823.6,5.01,0.00,29.4,28.4,00.0,38.5,31.1,14.4,0001.4,0018.44,0007.39,0005.36
2022-03-27 06:18:00,,0823.7,4.99,0.00,29.4,28.4,00.0,38.5,31.1,14.4,0000.8,0018.79,0007.41,0005.35
2022-03-27 06:19:00,,0823.7,5.01,0.00,29.4,28.4,00.0,38.5,31.1,14.5,0000.0,0018.38,0007.42,0005.35
2022-03-27 06:20:00,,0823.6,4.98,0.00,29.4,28.4,00.0,38.5,31.1,14.5,0000.0,0018.85,0007.44,0005.33
2022-03-27 06:21:00,,0823.6,5.01,0.00,29.4,28.3,00.0,38.5,31.1,14.5,0000.0,0019.18,0007.39,0005.31
2022-03-27 06:22:00,,0823.7,5.01,0.00,29.3,28.3,00.0,38.4,31.0,14.5,0000.0,0018.93,0007.34,0005.29
2022-03-27 06:23:00,,0823.7,5.00,0.00,29.3,28.3,00.0,38.4,31.1,14.5,0000.0,0019.74,0007.29,0005.25
2022-03-27 06:24:00,,0823.6,4.99,0.00,29.3,28.3,00.0,38.4,31.1,14.5,0000.0,0020.47,0007.28,0005.22
2022-03-27 06:25:00,,0823.7,4.99,0.00,29.3,28.3,00.0,38.4,31.1,14.6,0000.0,0020.45,0007.29,0005.19
2022-03-27 06:26:00,,0823.7,5.01,0.00,29.3,28.3,00.0,38.4,31.1,14.6,0000.0,0020.73,0007.28,0005.18
2022-03-27 06:27:00,,0823.7,4.98,0.00,29.3,28.3,00.0,38.4,31.1,14.6,0000.0,0021.15,0007.21,0005.15
2022-03-27 06:28:00,,0823.7,4.99,0.00,29.4,28.3,00.0,38.4,31.1,14.5,0000.0,0021.24,0007.17,0005.14
2022-03-27 06:29:00,,0823.7,5.01,0.00,29.4,28.4,00.0,38.4,31.1,14.5,0001.0,0020.11,0007.14,0005.14
2022-03-27 06:30:00,,0823.7,4.99,0.00,29.4,28.3,00.0,38.4,31.1,14.6,0003.3,0020.21,0007.09,0005.13
2022-03-27 06:31:00,,0823.8,4.99,0.00,29.4,28.4,00.0,38.4,31.1,14.6,0002.2,0020.21,0007.01,0005.12
2022-03-27 06:32:00,,0823.8,5.00,0.00,29.4,28.4,00.0,38.4,31.1,14.5,0002.0,0019.63,0007.03,0005.11
2022-03-27 06:33:00,,0823.8,5.02,0.00,29.4,28.4,00.0,38.4,31.1,14.5,0003.6,0019.70,0007.06,0005.11
2022-03-27 06:34:00,,0823.8,5.00,0.00,29.4,28.4,00.0,38.4,31.1,14.5,0005.1,0020.68,0007.05,0005.11
2022-03-27 06:35:00,,0823.7,4.99,0.00,29.3,28.4,00.0,38.4,31.1,14.5,0005.3,0019.94,0007.02,0005.11
2022-03-27 06:36:00,,0823.7,5.01,0.00,29.4,28.4,00.0,38.4,31.1,14.4,0005.2,0019.79,0006.98,0005.10
2022-03-27 06:37:00,,0823.7,5.02,0.00,29.3,28.4,00.0,38.4,31.1,14.4,0005.0,0019.99,0007.02,0005.10
2022-03-27 06:38:00,,0823.7,5.00,0.00,29.4,28.4,00.0,38.4,31.1,14.4,0005.2,0019.61,0007.08,0005.11
2022-03-27 06:39:00,,0823.8,5.00,0.00,29.4,28.4,00.0,38.4,31.1,14.4,0004.9,0019.41,0007.10,0005.10
2022-03-27 06:40:00,,0823.8,5.00,0.00,29.4,28.4,00.0,38.4,31.1,14.4,0004.8,0019.49,0007.04,0005.08
2022-03-27 06:41:00,,0823.8,4.99,0.00,29.3,28.4,00.0,38.4,31.1,14.4,0004.7,0019.57,0007.01,0005.07
2022-03-27 06:42:00,,0823.8,5.02,0.00,29.3,28.3,00.0,38.4,31.1,14.4,0004.5,0019.31,0007.03,0005.06
2022-03-27 06:43:00,,0823.8,4.99,0.00,29.3,28.3,00.0,38.3,31.0,14.4,0004.1,0020.43,0007.00,0005.03
2022-03-27 06:44:00,,0823.7,4.99,0.00,29.3,28.3,00.0,38.3,31.0,14.3,0003.2,0020.39,0006.94,0005.03
2022-03-27 06:45:00,,0823.8,5.01,0.00,29.3,28.3,00.0,38.3,31.1,14.2,0001.3,0019.43,0006.87,0004.99
2022-03-27 06:46:00,,0823.7,5.00,0.00,29.3,28.3,00.0,38.3,31.0,14.2,0000.3,0019.40,0006.89,0004.97
2022-03-27 06:47:00,,0823.7,4.99,0.00,29.3,28.3,00.0,38.3,31.0,14.1,0000.7,0019.45,0006.87,0004.95
2022-03-27 06:48:00,,0823.7,5.00,0.00,29.3,28.2,00.0,38.3,31.0,14.1,0000.7,0018.85,0006.82,0004.92
2022-03-27 06:49:00,,0823.7,5.01,0.00,29.3,28.2,00.0,38.3,31.0,14.0,0000.8,0018.53,0006.75,0004.89
2022-03-27 06:50:00,,0823.7,4.99,0.00,29.3,28.2,00.0,38.3,31.0,14.0,0000.9,0019.41,0006.69,0004.84
2022-03-27 06:51:00,,0823.7,5.00,0.00,29.3,28.2,00.0,38.3,31.0,13.9,0000.8,0019.75,0006.63,0004.79
2022-03-27 06:52:00,,0823.8,5.02,0.00,29.2,28.2,00.0,38.3,30.9,13.9,0001.0,0019.56,0006.61,0004.71
2022-03-27 06:53:00,,0823.8,4.99,0.00,29.2,28.1,00.0,38.3,30.9,13.9,0000.0,0019.62,0006.56,0004.64
2022-03-27 06:54:00,,0823.9,4.99,0.00,29.2,28.1,00.0,38.3,30.8,13.9,-000.1,0018.40,0006.51,0004.59
2022-03-27 06:55:00,,0823.9,5.01,0.00,29.1,28.0,00.0,38.3,30.8,13.9,-000.1,0018.53,0006.50,0004.53
2022-03-27 06:56:00,,0823.8,5.01,0.00,29.1,28.0,00.0,38.2,30.8,13.9,0000.6,0018.56,0006.57,0004.49
2022-03-27 06:57:00,,0823.9,5.00,0.00,29.1,28.0,00.0,38.2,30.9,13.9,0001.1,0017.34,0006.51,0004.43
2022-03-27 06:58:00,,0823.9,4.99,0.00,29.1,28.0,00.0,38.2,30.8,13.9,0001.5,0017.45,0006.47,0004.37
2022-03-27 06:59:00,,0823.9,5.00,0.00,29.1,28.0,00.0,38.2,30.9,13.9,0001.6,0018.34,0006.40,0004.33
